Location: Unspecified
(40.8819°N, 0.0000°E)
Time: 23:12:55
(UTC+00:00)

BUGSAT 1 - Visible Passes

Search period start: 24 April 2024 00:00
Search period end: 04 May 2024 00:00
Orbit: 533 x 581 km, 98.1° (Epoch: 24 April)

Date Brightness Start Highest point End Pass type
(mag) Time Alt. Az. Time Alt. Az. Time Alt. Az.
24 Apr ? 20:08:12 10° SSW 20:11:48 34° W 20:15:29 10° NNW visible
25 Apr ? 20:05:59 10° SSW 20:09:38 36° W 20:13:22 10° NNW visible
26 Apr ? 20:03:44 10° SSW 20:07:27 38° W 20:11:14 10° NNW visible
27 Apr ? 20:01:29 10° S 20:05:15 41° W 20:09:05 10° NNW visible
28 Apr ? 19:59:13 10° S 20:03:01 44° W 20:06:55 10° NNW visible
29 Apr ? 19:56:56 10° S 20:00:47 48° W 20:04:44 10° NNW visible
30 Apr ? 19:54:38 10° S 19:58:32 51° W 20:02:30 10° NNW visible
01 May ? 19:52:20 10° S 19:56:15 55° W 20:00:16 10° NNW visible
02 May ? 19:50:01 10° S 19:53:58 60° WSW 19:58:00 10° NNW visible
03 May ? 19:47:41 10° S 19:51:39 64° WSW 19:55:43 10° NNW visible
